contact:dominique.lefevre@mio.osupytheas.fr, maurice.libes@osupytheas.fr, didier.mallarino@osupytheas.fr
Project:EMSO http://www.emso-fr.org/EMSO-France
Depth: 2436.0 m
Title:EMSO Ligure Ouest : Data MII capteur CSTAR
DateTime,Latitude,Longitude,Instrument_Serial,Reference_Counts,Signal_Counts,Corrected_Signal_raw_counts,Calculated_Beam_c_inverse_meters,Internal_thermistor_counts
DateTime,Latitude,Longitude,Instrument_Serial,Reference_Counts,Signal_Counts,Corrected_Signal_raw_counts,Calculated_Beam_c_inverse_meters,Internal_thermistor_counts
2020-06-01T00:00:37,42.805,6.029,CST-1368DR,6251,8761,15158,0.119,551
2020-06-01T00:03:39,42.805,6.029,CST-1368DR,6251,8761,15157,0.119,551
2020-06-01T00:06:40,42.805,6.029,CST-1368DR,6251,8762,15159,0.119,551
2020-06-01T00:09:42,42.805,6.029,CST-1368DR,6251,8761,15158,0.119,551
2020-06-01T00:12:44,42.805,6.029,CST-1368DR,6251,8760,15156,0.120,551
2020-06-01T00:15:45,42.805,6.029,CST-1368DR,6251,8762,15158,0.119,551
2020-06-01T00:18:47,42.805,6.029,CST-1368DR,6251,8760,15156,0.120,551
2020-06-01T00:21:49,42.805,6.029,CST-1368DR,6251,8761,15156,0.120,551
2020-06-01T00:24:51,42.805,6.029,CST-1368DR,6251,8761,15158,0.119,551
2020-06-01T00:27:52,42.805,6.029,CST-1368DR,6251,8761,15156,0.120,551
2020-06-01T00:30:54,42.805,6.029,CST-1368DR,6251,8761,15158,0.119,551
2020-06-01T00:33:56,42.805,6.029,CST-1368DR,6251,8761,15158,0.119,551
2020-06-01T00:36:57,42.805,6.029,CST-1368DR,6251,8762,15158,0.119,551
2020-06-01T00:39:59,42.805,6.029,CST-1368DR,6251,8761,15157,0.119,551
2020-06-01T00:43:01,42.805,6.029,CST-1368DR,6251,8762,15158,0.119,551
2020-06-01T00:46:03,42.805,6.029,CST-1368DR,6251,8761,15157,0.119,551
2020-06-01T00:49:04,42.805,6.029,CST-1368DR,6251,8762,15159,0.119,551
2020-06-01T00:52:06,42.805,6.029,CST-1368DR,6251,8762,15158,0.119,551
2020-06-01T00:55:08,42.805,6.029,CST-1368DR,6251,8761,15158,0.119,550
2020-06-01T00:58:09,42.805,6.029,CST-1368DR,6251,8762,15159,0.119,551
2020-06-01T01:01:11,42.805,6.029,CST-1368DR,6251,8762,15159,0.119,550
2020-06-01T01:04:13,42.805,6.029,CST-1368DR,6251,8761,15157,0.119,551
2020-06-01T01:07:15,42.805,6.029,CST-1368DR,6251,8762,15159,0.119,551
2020-06-01T01:10:17,42.805,6.029,CST-1368DR,6251,8762,15158,0.119,551
2020-06-01T01:13:18,42.805,6.029,CST-1368DR,6251,8762,15158,0.119,551
2020-06-01T01:16:20,42.805,6.029,CST-1368DR,6251,8760,15156,0.120,551
2020-06-01T01:19:22,42.805,6.029,CST-1368DR,6251,8761,15158,0.119,551
2020-06-01T01:22:23,42.805,6.029,CST-1368DR,6251,8761,15158,0.119,551
2020-06-01T01:25:25,42.805,6.029,CST-1368DR,6251,8761,15157,0.119,551
2020-06-01T01:28:26,42.805,6.029,CST-1368DR,6251,8761,15158,0.119,551
2020-06-01T01:31:28,42.805,6.029,CST-1368DR,6251,8761,15157,0.119,551
2020-06-01T01:34:30,42.805,6.029,CST-1368DR,6251,8761,15156,0.120,551
2020-06-01T01:37:32,42.805,6.029,CST-1368DR,6251,8761,15156,0.120,551
2020-06-01T01:40:33,42.805,6.029,CST-1368DR,6251,8762,15158,0.119,551
2020-06-01T01:43:35,42.805,6.029,CST-1368DR,6251,8761,15156,0.120,551
2020-06-01T01:46:37,42.805,6.029,CST-1368DR,6251,8760,15156,0.120,551
2020-06-01T01:49:38,42.805,6.029,CST-1368DR,6251,8760,15155,0.120,551
2020-06-01T01:52:40,42.805,6.029,CST-1368DR,6251,8760,15156,0.120,551
2020-06-01T01:55:42,42.805,6.029,CST-1368DR,6251,8760,15156,0.120,551
2020-06-01T01:58:44,42.805,6.029,CST-1368DR,6251,8762,15158,0.119,551
2020-06-01T02:01:45,42.805,6.029,CST-1368DR,6251,8761,15158,0.119,551
2020-06-01T02:04:47,42.805,6.029,CST-1368DR,6251,8758,15153,0.120,551
2020-06-01T02:07:49,42.805,6.029,CST-1368DR,6251,8760,15156,0.120,551
2020-06-01T02:10:50,42.805,6.029,CST-1368DR,6251,8760,15156,0.120,551
2020-06-01T02:13:52,42.805,6.029,CST-1368DR,6251,8761,15157,0.119,551
2020-06-01T02:16:54,42.805,6.029,CST-1368DR,6251,8761,15157,0.119,551
2020-06-01T02:19:55,42.805,6.029,CST-1368DR,6251,8760,15155,0.120,551
2020-06-01T02:22:57,42.805,6.029,CST-1368DR,6251,8760,15155,0.120,551
2020-06-01T02:25:59,42.805,6.029,CST-1368DR,6251,8760,15156,0.120,551
2020-06-01T02:29:00,42.805,6.029,CST-1368DR,6251,8761,15156,0.120,551
2020-06-01T02:32:02,42.805,6.029,CST-1368DR,6251,8761,15156,0.120,551
2020-06-01T02:35:04,42.805,6.029,CST-1368DR,6251,8761,15157,0.119,551
2020-06-01T02:38:06,42.805,6.029,CST-1368DR,6251,8761,15157,0.119,551
2020-06-01T02:41:07,42.805,6.029,CST-1368DR,6251,8761,15157,0.119,551
2020-06-01T02:44:09,42.805,6.029,CST-1368DR,6251,8762,15158,0.119,551
2020-06-01T02:47:11,42.805,6.029,CST-1368DR,6251,8761,15158,0.119,551
2020-06-01T02:50:13,42.805,6.029,CST-1368DR,6251,8762,15158,0.119,551
2020-06-01T02:53:14,42.805,6.029,CST-1368DR,6251,8760,15156,0.120,551
2020-06-01T02:56:16,42.805,6.029,CST-1368DR,6251,8760,15156,0.120,551
2020-06-01T02:59:18,42.805,6.029,CST-1368DR,6251,8760,15156,0.120,551
2020-06-01T03:02:19,42.805,6.029,CST-1368DR,6251,8760,15156,0.120,551
2020-06-01T03:05:21,42.805,6.029,CST-1368DR,6251,8761,15156,0.120,551
2020-06-01T03:08:23,42.805,6.029,CST-1368DR,6251,8761,15157,0.119,551
2020-06-01T03:11:24,42.805,6.029,CST-1368DR,6251,8760,15155,0.120,550
2020-06-01T03:14:26,42.805,6.029,CST-1368DR,6251,8759,15154,0.120,551
2020-06-01T03:17:28,42.805,6.029,CST-1368DR,6251,8760,15155,0.120,551
2020-06-01T03:20:29,42.805,6.029,CST-1368DR,6251,8760,15155,0.120,551
2020-06-01T03:23:31,42.805,6.029,CST-1368DR,6251,8761,15156,0.120,551
2020-06-01T03:26:32,42.805,6.029,CST-1368DR,6251,8761,15157,0.119,551
2020-06-01T03:29:34,42.805,6.029,CST-1368DR,6251,8759,15154,0.120,551
2020-06-01T03:32:36,42.805,6.029,CST-1368DR,6251,8760,15156,0.120,551
2020-06-01T03:35:38,42.805,6.029,CST-1368DR,6251,8761,15156,0.120,551
2020-06-01T03:38:39,42.805,6.029,CST-1368DR,6251,8759,15154,0.120,551
2020-06-01T03:41:41,42.805,6.029,CST-1368DR,6251,8760,15156,0.120,551
2020-06-01T03:44:43,42.805,6.029,CST-1368DR,6251,8761,15156,0.120,551
2020-06-01T03:47:44,42.805,6.029,CST-1368DR,6251,8761,15156,0.120,551
2020-06-01T03:50:46,42.805,6.029,CST-1368DR,6251,8759,15154,0.120,551
2020-06-01T03:53:48,42.805,6.029,CST-1368DR,6251,8760,15155,0.120,550
2020-06-01T03:56:49,42.805,6.029,CST-1368DR,6251,8759,15154,0.120,551
2020-06-01T03:59:51,42.805,6.029,CST-1368DR,6251,8760,15155,0.120,551
2020-06-01T04:02:53,42.805,6.029,CST-1368DR,6251,8760,15155,0.120,550
2020-06-01T04:05:54,42.805,6.029,CST-1368DR,6251,8760,15156,0.120,550
2020-06-01T04:08:56,42.805,6.029,CST-1368DR,6251,8760,15156,0.120,551
2020-06-01T04:11:58,42.805,6.029,CST-1368DR,6251,8760,15156,0.120,551
2020-06-01T04:14:59,42.805,6.029,CST-1368DR,6251,8760,15155,0.120,551
2020-06-01T04:18:01,42.805,6.029,CST-1368DR,6251,8760,15155,0.120,551
2020-06-01T04:21:03,42.805,6.029,CST-1368DR,6251,8760,15155,0.120,551
2020-06-01T04:24:04,42.805,6.029,CST-1368DR,6251,8759,15154,0.120,551
2020-06-01T04:27:06,42.805,6.029,CST-1368DR,6250,8759,15155,0.120,551
2020-06-01T04:30:08,42.805,6.029,CST-1368DR,6251,8759,15154,0.120,551
2020-06-01T04:33:09,42.805,6.029,CST-1368DR,6251,8760,15155,0.120,551
2020-06-01T04:36:11,42.805,6.029,CST-1368DR,6251,8759,15154,0.120,551
2020-06-01T04:39:13,42.805,6.029,CST-1368DR,6251,8758,15153,0.120,551
2020-06-01T04:42:14,42.805,6.029,CST-1368DR,6251,8759,15153,0.120,551
2020-06-01T04:45:16,42.805,6.029,CST-1368DR,6250,8759,15156,0.120,551
2020-06-01T04:48:18,42.805,6.029,CST-1368DR,6250,8759,15157,0.119,551
2020-06-01T04:51:19,42.805,6.029,CST-1368DR,6250,8759,15157,0.119,551
2020-06-01T04:54:21,42.805,6.029,CST-1368DR,6251,8756,15149,0.121,551
2020-06-01T04:57:23,42.805,6.029,CST-1368DR,6250,8758,15154,0.120,551
2020-06-01T05:00:24,42.805,6.029,CST-1368DR,6250,8759,15156,0.120,551
2020-06-01T05:03:26,42.805,6.029,CST-1368DR,6250,8758,15155,0.120,551
2020-06-01T05:06:28,42.805,6.029,CST-1368DR,6250,8759,15156,0.120,551
2020-06-01T05:09:29,42.805,6.029,CST-1368DR,6250,8759,15156,0.120,551
2020-06-01T05:12:31,42.805,6.029,CST-1368DR,6250,8759,15157,0.119,551
2020-06-01T05:15:33,42.805,6.029,CST-1368DR,6250,8759,15156,0.120,551
2020-06-01T05:18:35,42.805,6.029,CST-1368DR,6250,8760,15157,0.119,551
2020-06-01T05:21:36,42.805,6.029,CST-1368DR,6250,8759,15156,0.120,551
2020-06-01T05:24:38,42.805,6.029,CST-1368DR,6250,8758,15154,0.120,551
2020-06-01T05:27:40,42.805,6.029,CST-1368DR,6250,8759,15155,0.120,551
2020-06-01T05:30:41,42.805,6.029,CST-1368DR,6250,8759,15156,0.120,551
2020-06-01T05:33:43,42.805,6.029,CST-1368DR,6250,8758,15155,0.120,551
2020-06-01T05:36:45,42.805,6.029,CST-1368DR,6250,8759,15155,0.120,551
2020-06-01T05:39:46,42.805,6.029,CST-1368DR,6250,8759,15156,0.120,551
2020-06-01T05:42:48,42.805,6.029,CST-1368DR,6250,8759,15155,0.120,551
2020-06-01T05:45:50,42.805,6.029,CST-1368DR,6250,8759,15156,0.120,550
2020-06-01T05:48:51,42.805,6.029,CST-1368DR,6250,8758,15155,0.120,551
2020-06-01T05:51:53,42.805,6.029,CST-1368DR,6250,8759,15156,0.120,551
2020-06-01T05:54:55,42.805,6.029,CST-1368DR,6250,8759,15156,0.120,551
2020-06-01T05:57:57,42.805,6.029,CST-1368DR,6250,8758,15155,0.120,551
2020-06-01T06:00:58,42.805,6.029,CST-1368DR,6250,8759,15156,0.120,551
2020-06-01T06:04:00,42.805,6.029,CST-1368DR,6250,8758,15154,0.120,551
2020-06-01T06:07:02,42.805,6.029,CST-1368DR,6250,8758,15155,0.120,551
2020-06-01T06:10:03,42.805,6.029,CST-1368DR,6250,8759,15156,0.120,551
2020-06-01T06:13:05,42.805,6.029,CST-1368DR,6250,8759,15156,0.120,551
2020-06-01T06:16:07,42.805,6.029,CST-1368DR,6250,8759,15156,0.120,551
2020-06-01T06:19:09,42.805,6.029,CST-1368DR,6250,8758,15154,0.120,551
2020-06-01T06:22:10,42.805,6.029,CST-1368DR,6250,8758,15155,0.120,551
2020-06-01T06:25:12,42.805,6.029,CST-1368DR,6250,8758,15155,0.120,551
2020-06-01T06:28:14,42.805,6.029,CST-1368DR,6250,8759,15157,0.119,551
2020-06-01T06:31:15,42.805,6.029,CST-1368DR,6250,8758,15154,0.120,551
2020-06-01T06:34:17,42.805,6.029,CST-1368DR,6250,8758,15155,0.120,551
2020-06-01T06:37:19,42.805,6.029,CST-1368DR,6250,8758,15154,0.120,550
2020-06-01T06:40:21,42.805,6.029,CST-1368DR,6250,8759,15156,0.120,551
2020-06-01T06:43:22,42.805,6.029,CST-1368DR,6250,8759,15155,0.120,551
2020-06-01T06:46:24,42.805,6.029,CST-1368DR,6250,8759,15156,0.120,551
2020-06-01T06:49:26,42.805,6.029,CST-1368DR,6250,8759,15155,0.120,551
2020-06-01T06:52:27,42.805,6.029,CST-1368DR,6250,8759,15156,0.120,551
2020-06-01T06:55:29,42.805,6.029,CST-1368DR,6250,8759,15157,0.119,551
2020-06-01T06:58:31,42.805,6.029,CST-1368DR,6250,8759,15156,0.120,551
2020-06-01T07:01:33,42.805,6.029,CST-1368DR,6250,8759,15156,0.120,551
2020-06-01T07:04:35,42.805,6.029,CST-1368DR,6250,8759,15156,0.120,551
2020-06-01T07:07:36,42.805,6.029,CST-1368DR,6250,8759,15156,0.120,551
2020-06-01T07:10:38,42.805,6.029,CST-1368DR,6250,8759,15157,0.119,551
2020-06-01T07:13:39,42.805,6.029,CST-1368DR,6250,8759,15156,0.120,551
2020-06-01T07:16:41,42.805,6.029,CST-1368DR,6250,8759,15156,0.120,551
2020-06-01T07:19:43,42.805,6.029,CST-1368DR,6250,8759,15156,0.120,551
2020-06-01T07:22:45,42.805,6.029,CST-1368DR,6250,8759,15156,0.120,551
2020-06-01T07:25:47,42.805,6.029,CST-1368DR,6250,8759,15157,0.119,551
2020-06-01T07:28:48,42.805,6.029,CST-1368DR,6250,8759,15157,0.119,551
2020-06-01T07:31:50,42.805,6.029,CST-1368DR,6250,8759,15157,0.119,551
2020-06-01T07:34:52,42.805,6.029,CST-1368DR,6250,8759,15157,0.119,551
2020-06-01T07:37:54,42.805,6.029,CST-1368DR,6250,8760,15157,0.119,551
2020-06-01T07:40:55,42.805,6.029,CST-1368DR,6250,8759,15156,0.120,551
2020-06-01T07:43:57,42.805,6.029,CST-1368DR,6250,8759,15156,0.120,551
2020-06-01T07:46:59,42.805,6.029,CST-1368DR,6250,8759,15156,0.120,551
2020-06-01T07:50:00,42.805,6.029,CST-1368DR,6250,8759,15156,0.120,551
2020-06-01T07:53:02,42.805,6.029,CST-1368DR,6250,8759,15156,0.120,551
2020-06-01T07:56:04,42.805,6.029,CST-1368DR,6250,8759,15156,0.120,551
2020-06-01T07:59:05,42.805,6.029,CST-1368DR,6250,8755,15148,0.122,551
2020-06-01T08:02:07,42.805,6.029,CST-1368DR,6250,8759,15156,0.120,551
2020-06-01T08:05:09,42.805,6.029,CST-1368DR,6250,8758,15154,0.120,551
2020-06-01T08:08:10,42.805,6.029,CST-1368DR,6250,8758,15154,0.120,551
2020-06-01T08:11:12,42.805,6.029,CST-1368DR,6250,8759,15156,0.120,551
2020-06-01T08:14:14,42.805,6.029,CST-1368DR,6250,8759,15155,0.120,551
2020-06-01T08:17:15,42.805,6.029,CST-1368DR,6250,8758,15155,0.120,551
2020-06-01T08:20:17,42.805,6.029,CST-1368DR,6250,8759,15156,0.120,551
2020-06-01T08:23:19,42.805,6.029,CST-1368DR,6250,8758,15155,0.120,551
2020-06-01T08:26:20,42.805,6.029,CST-1368DR,6250,8758,15155,0.120,551
2020-06-01T08:29:22,42.805,6.029,CST-1368DR,6250,8759,15156,0.120,551
2020-06-01T08:32:24,42.805,6.029,CST-1368DR,6250,8757,15153,0.120,551
2020-06-01T08:35:25,42.805,6.029,CST-1368DR,6250,8757,15153,0.120,551
2020-06-01T08:38:27,42.805,6.029,CST-1368DR,6250,8758,15154,0.120,551
2020-06-01T08:41:29,42.805,6.029,CST-1368DR,6250,8758,15154,0.120,551
2020-06-01T08:44:31,42.805,6.029,CST-1368DR,6250,8757,15153,0.120,550
2020-06-01T08:47:32,42.805,6.029,CST-1368DR,6250,8758,15155,0.120,551
2020-06-01T08:50:34,42.805,6.029,CST-1368DR,6250,8757,15152,0.121,551
2020-06-01T08:53:36,42.805,6.029,CST-1368DR,6250,8758,15154,0.120,550
2020-06-01T08:56:38,42.805,6.029,CST-1368DR,6250,8759,15155,0.120,550
2020-06-01T08:59:39,42.805,6.029,CST-1368DR,6250,8757,15153,0.120,551
2020-06-01T09:02:41,42.805,6.029,CST-1368DR,6250,8758,15155,0.120,551
2020-06-01T09:05:43,42.805,6.029,CST-1368DR,6250,8759,15155,0.120,551
2020-06-01T09:08:45,42.805,6.029,CST-1368DR,6250,8758,15154,0.120,551
2020-06-01T09:11:46,42.805,6.029,CST-1368DR,6250,8758,15154,0.120,551
2020-06-01T09:14:48,42.805,6.029,CST-1368DR,6250,8757,15152,0.121,551
2020-06-01T09:17:50,42.805,6.029,CST-1368DR,6250,8757,15152,0.121,551
2020-06-01T09:20:52,42.805,6.029,CST-1368DR,6250,8753,15145,0.123,551
2020-06-01T09:23:53,42.805,6.029,CST-1368DR,6250,8757,15153,0.120,551
2020-06-01T09:26:55,42.805,6.029,CST-1368DR,6250,8757,15153,0.120,551
2020-06-01T09:29:57,42.805,6.029,CST-1368DR,6250,8758,15154,0.120,551
2020-06-01T09:32:58,42.805,6.029,CST-1368DR,6250,8758,15154,0.120,551
2020-06-01T09:36:00,42.805,6.029,CST-1368DR,6250,8757,15152,0.121,551
2020-06-01T09:39:02,42.805,6.029,CST-1368DR,6250,8757,15153,0.120,551
2020-06-01T09:42:04,42.805,6.029,CST-1368DR,6250,8758,15154,0.120,551
2020-06-01T09:45:06,42.805,6.029,CST-1368DR,6250,8758,15154,0.120,551
2020-06-01T09:48:07,42.805,6.029,CST-1368DR,6250,8758,15154,0.120,551
2020-06-01T09:51:09,42.805,6.029,CST-1368DR,6250,8758,15155,0.120,551
2020-06-01T09:54:11,42.805,6.029,CST-1368DR,6250,8758,15155,0.120,551
2020-06-01T09:57:12,42.805,6.029,CST-1368DR,6250,8757,15153,0.120,551
2020-06-01T10:00:14,42.805,6.029,CST-1368DR,6250,8758,15154,0.120,551
2020-06-01T10:03:16,42.805,6.029,CST-1368DR,6250,8758,15155,0.120,551
2020-06-01T10:06:17,42.805,6.029,CST-1368DR,6250,8758,15154,0.120,551
2020-06-01T10:09:19,42.805,6.029,CST-1368DR,6250,8758,15154,0.120,551
2020-06-01T10:12:21,42.805,6.029,CST-1368DR,6250,8757,15153,0.120,551
2020-06-01T10:15:22,42.805,6.029,CST-1368DR,6250,8758,15154,0.120,551
2020-06-01T10:18:24,42.805,6.029,CST-1368DR,6250,8757,15153,0.120,551
2020-06-01T10:21:26,42.805,6.029,CST-1368DR,6250,8758,15154,0.120,551
2020-06-01T10:24:27,42.805,6.029,CST-1368DR,6250,8758,15154,0.120,551
2020-06-01T10:27:29,42.805,6.029,CST-1368DR,6249,8757,15155,0.120,551
2020-06-01T10:30:31,42.805,6.029,CST-1368DR,6250,8757,15153,0.120,551
2020-06-01T10:33:32,42.805,6.029,CST-1368DR,6250,8758,15154,0.120,551
2020-06-01T10:36:34,42.805,6.029,CST-1368DR,6249,8757,15155,0.120,551
2020-06-01T10:39:36,42.805,6.029,CST-1368DR,6249,8757,15154,0.120,551
2020-06-01T10:42:38,42.805,6.029,CST-1368DR,6249,8757,15155,0.120,551
2020-06-01T10:45:39,42.805,6.029,CST-1368DR,6249,8757,15155,0.120,551
2020-06-01T10:48:41,42.805,6.029,CST-1368DR,6249,8757,15154,0.120,551
2020-06-01T10:51:43,42.805,6.029,CST-1368DR,6249,8757,15155,0.120,551
2020-06-01T10:54:44,42.805,6.029,CST-1368DR,6249,8757,15154,0.120,551
2020-06-01T10:57:46,42.805,6.029,CST-1368DR,6249,8757,15154,0.120,551
2020-06-01T11:00:48,42.805,6.029,CST-1368DR,6249,8757,15155,0.120,551
2020-06-01T11:03:50,42.805,6.029,CST-1368DR,6249,8757,15155,0.120,551
2020-06-01T11:06:51,42.805,6.029,CST-1368DR,6249,8757,15154,0.120,550
2020-06-01T11:09:53,42.805,6.029,CST-1368DR,6249,8757,15154,0.120,551
2020-06-01T11:12:55,42.805,6.029,CST-1368DR,6249,8757,15155,0.120,551
2020-06-01T11:15:56,42.805,6.029,CST-1368DR,6249,8757,15155,0.120,551
2020-06-01T11:18:58,42.805,6.029,CST-1368DR,6249,8757,15155,0.120,550
2020-06-01T11:22:00,42.805,6.029,CST-1368DR,6249,8757,15154,0.120,551
2020-06-01T11:25:01,42.805,6.029,CST-1368DR,6249,8757,15155,0.120,551
2020-06-01T11:28:03,42.805,6.029,CST-1368DR,6249,8757,15155,0.120,551
2020-06-01T11:31:05,42.805,6.029,CST-1368DR,6249,8756,15154,0.120,551
2020-06-01T11:34:06,42.805,6.029,CST-1368DR,6249,8756,15152,0.121,551
2020-06-01T11:37:08,42.805,6.029,CST-1368DR,6249,8756,15153,0.120,551
2020-06-01T11:40:10,42.805,6.029,CST-1368DR,6249,8757,15155,0.120,551
2020-06-01T11:43:12,42.805,6.029,CST-1368DR,6249,8757,15154,0.120,551
2020-06-01T11:46:13,42.805,6.029,CST-1368DR,6249,8757,15154,0.120,551
2020-06-01T11:49:15,42.805,6.029,CST-1368DR,6249,8757,15154,0.120,550
2020-06-01T11:52:17,42.805,6.029,CST-1368DR,6249,8757,15155,0.120,550
2020-06-01T11:55:19,42.805,6.029,CST-1368DR,6249,8757,15154,0.120,551
2020-06-01T11:58:20,42.805,6.029,CST-1368DR,6249,8758,15156,0.120,551
2020-06-01T12:01:22,42.805,6.029,CST-1368DR,6249,8756,15153,0.120,551
2020-06-01T12:04:24,42.805,6.029,CST-1368DR,6249,8757,15155,0.120,551
2020-06-01T12:07:25,42.805,6.029,CST-1368DR,6249,8757,15155,0.120,550
2020-06-01T12:10:27,42.805,6.029,CST-1368DR,6249,8757,15154,0.120,551
2020-06-01T12:13:29,42.805,6.029,CST-1368DR,6249,8756,15154,0.120,551
2020-06-01T12:16:30,42.805,6.029,CST-1368DR,6249,8756,15153,0.120,551
2020-06-01T12:19:32,42.805,6.029,CST-1368DR,6249,8756,15154,0.120,551
2020-06-01T12:22:34,42.805,6.029,CST-1368DR,6249,8757,15155,0.120,551
2020-06-01T12:25:35,42.805,6.029,CST-1368DR,6249,8757,15155,0.120,551
2020-06-01T12:28:37,42.805,6.029,CST-1368DR,6249,8756,15154,0.120,551
2020-06-01T12:31:39,42.805,6.029,CST-1368DR,6249,8756,15154,0.120,551
2020-06-01T12:34:41,42.805,6.029,CST-1368DR,6249,8757,15154,0.120,551
2020-06-01T12:37:42,42.805,6.029,CST-1368DR,6249,8756,15153,0.120,551
2020-06-01T12:40:44,42.805,6.029,CST-1368DR,6249,8757,15154,0.120,551
2020-06-01T12:43:46,42.805,6.029,CST-1368DR,6249,8757,15154,0.120,551
2020-06-01T12:46:47,42.805,6.029,CST-1368DR,6249,8756,15154,0.120,551
2020-06-01T12:49:49,42.805,6.029,CST-1368DR,6249,8757,15154,0.120,551
2020-06-01T12:52:51,42.805,6.029,CST-1368DR,6249,8757,15154,0.120,551
2020-06-01T12:55:52,42.805,6.029,CST-1368DR,6249,8756,15154,0.120,551
2020-06-01T12:58:54,42.805,6.029,CST-1368DR,6249,8756,15153,0.120,551
2020-06-01T13:01:56,42.805,6.029,CST-1368DR,6249,8756,15152,0.121,551
2020-06-01T13:04:57,42.805,6.029,CST-1368DR,6249,8756,15153,0.120,550
2020-06-01T13:07:59,42.805,6.029,CST-1368DR,6249,8756,15154,0.120,551
2020-06-01T13:11:01,42.805,6.029,CST-1368DR,6249,8757,15154,0.120,551
2020-06-01T13:14:02,42.805,6.029,CST-1368DR,6249,8756,15154,0.120,551
2020-06-01T13:17:04,42.805,6.029,CST-1368DR,6249,8757,15155,0.120,551
2020-06-01T13:20:06,42.805,6.029,CST-1368DR,6249,8756,15152,0.121,551
2020-06-01T13:23:07,42.805,6.029,CST-1368DR,6249,8757,15154,0.120,551
2020-06-01T13:26:09,42.805,6.029,CST-1368DR,6249,8757,15154,0.120,551
2020-06-01T13:29:11,42.805,6.029,CST-1368DR,6249,8757,15154,0.120,550
2020-06-01T13:32:13,42.805,6.029,CST-1368DR,6249,8756,15152,0.121,551
2020-06-01T13:35:14,42.805,6.029,CST-1368DR,6249,8756,15153,0.120,551
2020-06-01T13:38:16,42.805,6.029,CST-1368DR,6249,8756,15153,0.120,551
2020-06-01T13:41:18,42.805,6.029,CST-1368DR,6249,8756,15154,0.120,551
2020-06-01T13:44:19,42.805,6.029,CST-1368DR,6249,8757,15154,0.120,551
2020-06-01T13:47:21,42.805,6.029,CST-1368DR,6249,8757,15154,0.120,551
2020-06-01T13:50:23,42.805,6.029,CST-1368DR,6249,8756,15153,0.120,551
2020-06-01T13:53:24,42.805,6.029,CST-1368DR,6249,8757,15154,0.120,551
2020-06-01T13:56:26,42.805,6.029,CST-1368DR,6249,8755,15152,0.121,551
2020-06-01T13:59:28,42.805,6.029,CST-1368DR,6249,8756,15154,0.120,551
2020-06-01T14:02:29,42.805,6.029,CST-1368DR,6249,8756,15153,0.120,551
2020-06-01T14:05:31,42.805,6.029,CST-1368DR,6249,8756,15152,0.121,551
2020-06-01T14:08:33,42.805,6.029,CST-1368DR,6249,8756,15153,0.120,551
2020-06-01T14:11:34,42.805,6.029,CST-1368DR,6249,8755,15152,0.121,551
2020-06-01T14:14:36,42.805,6.029,CST-1368DR,6249,8756,15153,0.120,551
2020-06-01T14:17:38,42.805,6.029,CST-1368DR,6249,8756,15154,0.120,551
2020-06-01T14:20:40,42.805,6.029,CST-1368DR,6249,8749,15141,0.124,551
2020-06-01T14:23:41,42.805,6.029,CST-1368DR,6249,8756,15153,0.120,551
2020-06-01T14:26:43,42.805,6.029,CST-1368DR,6249,8757,15154,0.120,551
2020-06-01T14:29:45,42.805,6.029,CST-1368DR,6249,8757,15154,0.120,551
2020-06-01T14:32:46,42.805,6.029,CST-1368DR,6249,8756,15153,0.120,551
2020-06-01T14:35:48,42.805,6.029,CST-1368DR,6249,8757,15154,0.120,551
2020-06-01T14:38:50,42.805,6.029,CST-1368DR,6249,8757,15154,0.120,551
2020-06-01T14:41:51,42.805,6.029,CST-1368DR,6249,8756,15154,0.120,550
2020-06-01T14:44:53,42.805,6.029,CST-1368DR,6249,8756,15152,0.121,551
2020-06-01T14:47:55,42.805,6.029,CST-1368DR,6249,8757,15154,0.120,551
2020-06-01T14:50:57,42.805,6.029,CST-1368DR,6249,8756,15153,0.120,551
2020-06-01T14:53:58,42.805,6.029,CST-1368DR,6249,8757,15154,0.120,550
2020-06-01T14:57:00,42.805,6.029,CST-1368DR,6249,8756,15152,0.121,551
2020-06-01T15:00:02,42.805,6.029,CST-1368DR,6249,8756,15153,0.120,551
2020-06-01T15:03:03,42.805,6.029,CST-1368DR,6249,8756,15153,0.120,551
2020-06-01T15:06:05,42.805,6.029,CST-1368DR,6249,8756,15153,0.120,551
2020-06-01T15:09:07,42.805,6.029,CST-1368DR,6249,8757,15154,0.120,551
2020-06-01T15:12:09,42.805,6.029,CST-1368DR,6248,8757,15156,0.120,551
2020-06-01T15:15:10,42.805,6.029,CST-1368DR,6249,8756,15154,0.120,551
2020-06-01T15:18:12,42.805,6.029,CST-1368DR,6249,8757,15154,0.120,551
2020-06-01T15:21:14,42.805,6.029,CST-1368DR,6249,8757,15154,0.120,551
2020-06-01T15:24:16,42.805,6.029,CST-1368DR,6249,8757,15154,0.120,550
2020-06-01T15:27:17,42.805,6.029,CST-1368DR,6249,8757,15154,0.120,551
2020-06-01T15:30:19,42.805,6.029,CST-1368DR,6249,8757,15154,0.120,551
2020-06-01T15:33:21,42.805,6.029,CST-1368DR,6249,8756,15153,0.120,551
2020-06-01T15:36:22,42.805,6.029,CST-1368DR,6248,8757,15157,0.119,551
2020-06-01T15:39:24,42.805,6.029,CST-1368DR,6249,8756,15154,0.120,551
2020-06-01T15:42:26,42.805,6.029,CST-1368DR,6249,8757,15154,0.120,551
2020-06-01T15:45:27,42.805,6.029,CST-1368DR,6249,8756,15153,0.120,551
2020-06-01T15:48:29,42.805,6.029,CST-1368DR,6248,8756,15155,0.120,551
2020-06-01T15:51:31,42.805,6.029,CST-1368DR,6249,8757,15154,0.120,551
2020-06-01T15:54:32,42.805,6.029,CST-1368DR,6249,8756,15154,0.120,551
2020-06-01T15:57:34,42.805,6.029,CST-1368DR,6249,8757,15154,0.120,551
2020-06-01T16:00:36,42.805,6.029,CST-1368DR,6249,8756,15154,0.120,550
2020-06-01T16:03:38,42.805,6.029,CST-1368DR,6248,8756,15155,0.120,551
2020-06-01T16:06:39,42.805,6.029,CST-1368DR,6248,8756,15155,0.120,551
2020-06-01T16:09:41,42.805,6.029,CST-1368DR,6248,8756,15155,0.120,551
2020-06-01T16:12:43,42.805,6.029,CST-1368DR,6248,8756,15155,0.120,551
2020-06-01T16:15:44,42.805,6.029,CST-1368DR,6248,8756,15155,0.120,550
2020-06-01T16:18:46,42.805,6.029,CST-1368DR,6248,8756,15156,0.120,551
2020-06-01T16:21:48,42.805,6.029,CST-1368DR,6248,8756,15155,0.120,551
2020-06-01T16:24:49,42.805,6.029,CST-1368DR,6248,8756,15155,0.120,551
2020-06-01T16:27:51,42.805,6.029,CST-1368DR,6248,8756,15155,0.120,551
2020-06-01T16:30:53,42.805,6.029,CST-1368DR,6248,8755,15153,0.120,551
2020-06-01T16:33:54,42.805,6.029,CST-1368DR,6248,8756,15156,0.120,551
2020-06-01T16:36:56,42.805,6.029,CST-1368DR,6248,8756,15155,0.120,551
2020-06-01T16:39:58,42.805,6.029,CST-1368DR,6248,8756,15155,0.120,551
2020-06-01T16:43:00,42.805,6.029,CST-1368DR,6248,8756,15155,0.120,551
2020-06-01T16:46:01,42.805,6.029,CST-1368DR,6248,8752,15148,0.122,551
2020-06-01T16:49:03,42.805,6.029,CST-1368DR,6248,8755,15154,0.120,551
2020-06-01T16:52:04,42.805,6.029,CST-1368DR,6248,8755,15154,0.120,551